| time (UTC) | temp C | wind direction | speed KPH | gust KPH | rain 1hr cm | rain 24hr cm | rain mn cm | humidity % | barometer mb |
| 20260504194605 | 22 | 1 | 9.7 | 20.9 | 0.00 | 0.00 | 0.00 | 31 | 1011.4 |
| 20260504193100 | 21 | 1 | 8.0 | 27.4 | 0.00 | 0.00 | 0.00 | 32 | 1011.5 |
| 20260504191623 | 21 | 1 | 6.4 | 24.1 | 0.00 | 0.00 | 0.00 | 32 | 1011.8 |
| 20260504191502 | 21 | 1 | 9.7 | 24.1 | 0.00 | 0.00 | 0.00 | 32 | 1011.8 |
| 20260504190110 | 21 | 1 | 9.7 | 29.0 | 0.00 | 0.00 | 0.00 | 31 | 1012.0 |
| 20260504190002 | 21 | 1 | 11.3 | 29.0 | 0.00 | 0.00 | 0.00 | 32 | 1012.0 |
| 20260504184609 | 21 | 1 | 8.0 | 30.6 | 0.00 | 0.00 | 0.00 | 32 | 1012.1 |
| 20260504183100 | 21 | 1 | 16.1 | 35.4 | 0.00 | 0.00 | 0.00 | 32 | 1012.5 |
| 20260504181606 | 21 | 1 | 9.7 | 19.3 | 0.00 | 0.00 | 0.00 | 32 | 1012.7 |
| 20260504181504 | 21 | 1 | 9.7 | 19.3 | 0.00 | 0.00 | 0.00 | 32 | 1012.7 |
| 20260504180100 | 21 | 1 | 11.3 | 24.1 | 0.00 | 0.00 | 0.00 | 34 | 1012.8 |
| 20260504180003 | 21 | 1 | 9.7 | 24.1 | 0.00 | 0.00 | 0.00 | 33 | 1012.8 |
| 20260504174600 | 20 | 1 | 8.0 | 24.1 | 0.00 | 0.00 | 0.00 | 33 | 1013.1 |
| 20260504173105 | 20 | 1 | 9.7 | 24.1 | 0.00 | 0.00 | 0.00 | 34 | 1013.1 |
| 20260504171604 | 20 | 1 | 9.7 | 32.2 | 0.00 | 0.00 | 0.00 | 35 | 1013.5 |
| 20260504081558 | 9 | 1 | 6.4 | 14.5 | 0.00 | 0.00 | 0.00 | 56 | 1016.0 |
| 20260504060107 | 9 | 1 | 4.8 | 11.3 | 0.00 | 0.00 | 0.00 | 48 | 1015.9 |
| 20260504050115 | 10 | 1 | 1.6 | 6.4 | 0.00 | 0.00 | 0.00 | 47 | 1015.8 |
| 20260504044557 | 10 | 1 | 3.2 | 14.5 | 0.00 | 0.00 | 0.00 | 46 | 1015.7 |
| 20260504043009 | 10 | 1 | 6.4 | 14.5 | 0.00 | 0.00 | 0.00 | 45 | 1015.6 |
| 20260504041501 | 10 | 1 | 4.8 | 11.3 | 0.00 | 0.00 | 0.00 | 46 | 1015.4 |
| 20260504040008 | 10 | 1 | 6.4 | 14.5 | 0.00 | 0.00 | 0.00 | 45 | 1015.4 |
| 20260504034504 | 10 | 1 | 4.8 | 12.9 | 0.00 | 0.00 | 0.00 | 44 | 1015.2 |
| 20260504033001 | 11 | 1 | 6.4 | 14.5 | 0.00 | 0.00 | 0.00 | 44 | 1015.2 |
| 20260504031501 | 11 | 1 | 6.4 | 20.9 | 0.00 | 0.00 | 0.00 | 43 | 1015.1 |
| 20260504030003 | 11 | 1 | 4.8 | 14.5 | 0.00 | 0.00 | 0.00 | 44 | 1015.0 |
| 20260504024507 | 11 | 1 | 6.4 | 14.5 | 0.00 | 0.00 | 0.00 | 43 | 1015.1 |
| 20260504023002 | 11 | 1 | 4.8 | 12.9 | 0.00 | 0.00 | 0.00 | 42 | 1015.1 |
| 20260504021502 | 11 | 1 | 6.4 | 12.9 | 0.00 | 0.00 | 0.00 | 42 | 1015.1 |
| 20260504020003 | 11 | 1 | 6.4 | 14.5 | 0.00 | 0.00 | 0.00 | 42 | 1015.0 |
| 20260504014507 | 11 | 1 | 4.8 | 12.9 | 0.00 | 0.00 | 0.00 | 41 | 1015.0 |
| 20260504013001 | 11 | 1 | 4.8 | 12.9 | 0.00 | 0.00 | 0.00 | 41 | 1014.9 |
| 20260504011501 | 12 | 1 | 3.2 | 9.7 | 0.00 | 0.00 | 0.00 | 41 | 1014.7 |
| 20260504010003 | 12 | 1 | 3.2 | 8.0 | 0.00 | 0.00 | 0.00 | 40 | 1014.5 |
| 20260504004500 | 12 | 1 | 3.2 | 8.0 | 0.00 | 0.00 | 0.00 | 39 | 1014.4 |
| 20260504003001 | 12 | 1 | 3.2 | 9.7 | 0.00 | 0.00 | 0.00 | 37 | 1014.1 |
| 20260504001502 | 13 | 1 | 3.2 | 12.9 | 0.00 | 0.00 | 0.00 | 37 | 1014.0 |
| 20260504000004 | 13 | 1 | 6.4 | 16.1 | 0.00 | 0.00 | 0.00 | 35 | 1013.9 |
| 20260503234501 | 13 | 1 | 4.8 | 16.1 | 0.00 | 0.00 | 0.00 | 34 | 1013.7 |
| 20260503233001 | 14 | 1 | 6.4 | 19.3 | 0.00 | 0.00 | 0.00 | 33 | 1013.5 |
| 20260503231502 | 14 | 1 | 8.0 | 25.7 | 0.00 | 0.00 | 0.00 | 32 | 1013.6 |
| 20260503230002 | 14 | 1 | 11.3 | 25.7 | 0.00 | 0.00 | 0.00 | 31 | 1013.5 |
| 20260503224600 | 15 | 1 | 6.4 | 25.7 | 0.00 | 0.00 | 0.00 | 31 | 1013.4 |
| 20260503223100 | 15 | 1 | 9.7 | 24.1 | 0.00 | 0.00 | 0.00 | 30 | 1013.3 |
| 20260503221602 | 15 | 1 | 16.1 | 38.6 | 0.00 | 0.00 | 0.00 | 29 | 1013.3 |
| 20260503220100 | 15 | 1 | 19.3 | 33.8 | 0.00 | 0.00 | 0.00 | 29 | 1013.3 |
| 20260503220011 | 15 | 1 | 17.7 | 33.8 | 0.00 | 0.00 | 0.00 | 29 | 1013.3 |
| 20260503214559 | 15 | 1 | 11.3 | 30.6 | 0.00 | 0.00 | 0.00 | 29 | 1013.3 |
| 20260503213100 | 15 | 1 | 12.9 | 33.8 | 0.00 | 0.00 | 0.00 | 30 | 1013.2 |
| 20260503211604 | 15 | 1 | 11.3 | 30.6 | 0.00 | 0.00 | 0.00 | 28 | 1013.2 |
| 20260503210100 | 15 | 1 | 20.9 | 41.8 | 0.00 | 0.00 | 0.00 | 29 | 1013.3 |
| 20260503210002 | 15 | 1 | 20.9 | 41.8 | 0.00 | 0.00 | 0.00 | 29 | 1013.3 |
| 20260503204600 | 15 | 1 | 8.0 | 27.4 | 0.00 | 0.00 | 0.00 | 31 | 1013.5 |
| 20260503203115 | 13 | 1 | 14.5 | 32.2 | 0.00 | 0.00 | 0.00 | 31 | 1013.7 |
| 20260503201601 | 13 | 1 | 14.5 | 33.8 | 0.00 | 0.00 | 0.00 | 31 | 1013.6 |
| 20260503200100 | 13 | 1 | 11.3 | 24.1 | 0.00 | 0.00 | 0.00 | 32 | 1013.7 |
| 20260503200002 | 13 | 1 | 9.7 | 24.1 | 0.00 | 0.00 | 0.00 | 32 | 1013.6 |